COSMOS 252 DEB *, 3690

Orbit data source: Space-Track

COSMOS 252 DEB *, 3690 is space debris in LEO originally from a launch on Fri, 01 Nov 1968 UTC launched from the Tyuratam Missile And Space Complex (TTMTR). Debris objects in space refer to the collection of defunct objects orbiting the Earth. Examples of debris include non-operational satellites, rocket bodies, and fragments generated from explosions, collisions, or faulty payload assembly.

Loading next visibility...
Identifier
3690, 1968-097AH
Orbit
LEO
Country
Flag of CISCIS
Related business
Manufacturer
Unknown
Mission
Spacecraft
Bus & Motor
Unknown
Mass
Unknown
Launch date (UTC)
1968-11-01 (57 years ago)
Launch vehicle
Unknown
Launch site
Tyuratam Missile And Space Complex (TTMTR)
Object type
Payload
Rocket body
Debris
Shape & HBR
Unknown shape, 0.1 m
Radar Cross Section
Small (<0.1 m²)

Expand to show TLE details & history
Last TLE update: 14 hours ago

TLE from 14 hours ago
0 COSMOS 252 DEB *
1 03690U 68097AH  25287.66205099  .00000185  00000-0  26288-3 0  9992
2 03690  62.3446 267.3529 0774861 206.6568 149.2544 12.90389371640489
Epoch: 2025-10-14T15:53Z
TLE epoch observation values (Epoch: 2025-10-14T15:53:21.205Z)
Latitude
-0.00007°
Longitude
5.56725°
Altitude
1,823.892 km
Speed
6.732 km/s
True Right ascension
17h 49m 24s
True Declination
0° 00' 00"
Sunlit
Object was in daylight at epoch
Visualization orbit readout
Latitude
Unknown
Longitude
Unknown
Altitude
Unknown
Speed
Unknown
Apparent Right ascension
Unknown
Apparent Declination
Unknown
Sunlit
N/A
Visualization observer readout
Local Sidereal Time
00:36:42
Azimuth
Unknown
Elevation
Unknown
Doppler factor
Unknown
Orbital elements
Apogee altitude
1,893.828 km
Perigee altitude
704.092 km
Semi-major axis
7,677.097 km
Eccentricity
0.07749
Inclination
62.3446°
RAAN
267.3529°
Arg. of periapsis
206.6568°
True anomaly
153.44025°
Mean anomaly
149.2544°
Eccentric anomaly
151.38091°
Mean motion
3.22662 °/min
Orbital period
111.57 mins
BSTAR
0.00026288
Loading maneuver chart data...
Computing Atmospheric mass density...

Documentation

Showing up to 5 results
|